Weather in Stargard Szczecinski

Poland     53°20′25″N   15°02′22″E
temp.,
°C
wind,
m/s
gust,
m/s
humid.,
%
clouds,
%
prec.,
mm/h
press.,
hPa
HPBL,
m
27 september, mon
mon2723:00+16ese511810 0.0 1019251
02:00+15ese511840 0.0 1019272
05:00+14ese511875 0.0 1018269
08:00+14ese51185100 0.0 1018338
11:00+19se686655 0.0 1019601
14:00+22se6755100 0.0 10181117
17:00+21se5758100 0.0 1017986
20:00+17ese41071100 0.0 1018225
28 september, tue
tue2823:00+16ese51171100 0.0 1018325
02:00+15se4869100 0.1 1019258
05:00+14se2390100 1.1 101997
08:00+14se2495100 3.1 1020133
11:00+17nw3585100 1.0 1022733
14:00+14nw3590100 1.7 1023381
17:00+15n238596 0.0 1023412
20:00+14ne2390100 0.0 1024107
29 september, wed
wed2923:00+14ne2291100 0.1 102490
02:00+13nne2392100 0.4 1023138
05:00+13ene2491100 0.1 1022115
08:00+12ese3884100 0.1 1021243
11:00+14se51074100 0.0 1021488
14:00+17se51059100 0.0 1020765
17:00+18sse6950100 0.0 1019977
20:00+13s3780100 0.8 1020292
30 september, thu
thu3023:00+13w4993100 3.2 1021514
02:00+11w4987100 3.3 1022526
05:00+8wsw410905 0.0 1024261
08:00+7ssw310910 0.0 1025349
11:00+12wsw69580 0.0 1026878
14:00+15wsw69400 0.0 10261527
17:00+14sw47445 0.0 10251572
20:00+9s475715 0.0 1026111
1 october, fri
fri123:00+8s486366 0.0 1025138
02:00+9s41160100 0.0 1025260
05:00+10s51155100 0.0 1023343
08:00+11s51154100 0.0 1023367
11:00+12s51153100 0.0 1022474
14:00+13ssw41052100 0.0 1021515
17:00+15ssw5950100 0.0 1020772
20:00+12s3860100 0.0 1020169